This is the latest recevied weather packets stored in our database for station/object DK9HI-WX. If no packets are shown the sender has not sent any weather packets the latest 10 day(s).
| Time | Temp. | Humidity | Pressure | Rain* | Wind** | Luminosity | Snow |
|---|---|---|---|---|---|---|---|
| 1777398170 | 18.89° C | 26% | 1025.9 hPa | - | - | - | - |
| 1777397570 | 18.89° C | 27% | 1025.8 hPa | - | - | - | - |
| 1777396972 | 19.44° C | 26% | 1025.7 hPa | - | - | - | - |
| 1777396372 | 20° C | 24% | 1025.7 hPa | - | - | - | - |
| 1777395769 | 19.44° C | 26% | 1025.6 hPa | - | - | - | - |
| 1777395169 | 20° C | 25% | 1025.6 hPa | - | - | - | - |
| 1777394569 | 20° C | 25% | 1025.6 hPa | - | - | - | - |
| 1777393970 | 20° C | 25% | 1025.6 hPa | - | - | - | - |
| 1777393369 | 20° C | 25% | 1025.6 hPa | - | - | - | - |
| 1777392772 | 20° C | 24% | 1025.5 hPa | - | - | - | - |
| 1777392169 | 20° C | 24% | 1025.6 hPa | - | - | - | - |
| 1777391569 | 20.56° C | 23% | 1025.7 hPa | - | - | - | - |
| 1777390968 | 20.56° C | 24% | 1025.5 hPa | - | - | - | - |
| 1777390370 | 20° C | 24% | 1025.6 hPa | - | - | - | - |
| 1777389769 | 20.56° C | 23% | 1025.7 hPa | - | - | - | - |
| 1777389168 | 20.56° C | 23% | 1025.7 hPa | - | - | - | - |
| 1777388572 | 20.56° C | 23% | 1025.8 hPa | - | - | - | - |
| 1777387972 | 20.56° C | 23% | 1025.8 hPa | - | - | - | - |
| 1777387368 | 20.56° C | 21% | 1025.8 hPa | - | - | - | - |
| 1777386768 | 20.56° C | 24% | 1025.8 hPa | - | - | - | - |
| 1777386168 | 20.56° C | 22% | 1025.9 hPa | - | - | - | - |
| 1777385568 | 20° C | 23% | 1025.8 hPa | - | - | - | - |
| 1777384967 | 20.56° C | 23% | 1026 hPa | - | - | - | - |
| 1777384367 | 20° C | 23% | 1025.9 hPa | - | - | - | - |
| 1777383767 | 20° C | 23% | 1026.1 hPa | - | - | - | - |
* Rain since midnight (hover to see other rain measurements)
** Current wind speed in m/s (hover to see current wind gust speed)